Regional Weather Roundup
Issued by NWS

Home | Current Version | Previous Version | Graphics & Text | Print | Product List | Glossary On
Versions: 1 2 3 4 5 6 7 8 9 10 11 12 13 14 15 16 17 18 19 20 21 22 23 24 25 26 27 28 29 30 31 32 33 34 35 36 37 38 39 40 41 42 43 44 45 46 47 48 49 50
000
ASUS43 KFSD 280702
RWRSD

WEATHER ROUNDUP FOR SOUTH DAKOTA
NATIONAL WEATHER SERVICE SIOUX FALLS SD
200 AM CDT SAT MAR 28 2015

NOTE: "FAIR" INDICATES FEW OR NO CLOUDS BELOW 12,000 FEET WITH NO
SIGNIFICANT WEATHER AND/OR OBSTRUCTIONS TO VISIBILITY.


SDZ001>005-009-010-012>017-280800-
NORTHWEST AND NORTH CENTRAL SOUTH DAKOTA

CITY           SKY/WX    TMP DP  RH WIND       PRES   REMARKS
BUFFALO          N/A     39  32  76 S12       29.88S
FAITH            N/A     38  31  76 S7        29.95S
MOBRIDGE       PTCLDY    27  25  92 E14       29.95S WCI  16
$$

SDZ012>016-024>037-041>051-057-063-072>074-280800-
SOUTHWEST AND SOUTH CENTRAL SOUTH DAKOTA

CITY           SKY/WX    TMP DP  RH WIND       PRES   REMARKS
RAPID CTY ARPT PTCLDY    41  32  70 NE10      29.96S
PIERRE         PTCLDY    28  26  92 E5        29.97R WCI  23
CUSTER         CLEAR     41  25  53 CALM      30.02S
ELLSWORTH AFB  PTCLDY    42  32  66 SW3       29.96S
PHILIP         CLEAR     35  29  78 CALM      29.97R
PINE RIDGE     PTCLDY    32  28  85 CALM      29.97S
SPEARFISH      FAIR      41  32  70 E6        29.98F
WINNER         CLOUDY    38  30  73 CALM      29.97S
$$

SDZ004>011-016>023-039-040-280800-
NORTHEAST SOUTH DAKOTA

CITY           SKY/WX    TMP DP  RH WIND       PRES   REMARKS
ABERDEEN       CLOUDY    32  26  78 SE6       30.05R WCI  26
WATERTOWN      CLOUDY    28  24  85 SE10      30.06R WCI  19
SISSETON         N/A     29  26  89 S7        30.09F WCI  22
$$

SDZ017-020-022-023-036>040-048>070-280800-
SOUTHEAST SOUTH DAKOTA

CITY           SKY/WX    TMP DP  RH WIND       PRES   REMARKS
SIOUX FALLS    CLOUDY    30  23  75 SE14      30.08R WCI  19
HURON          CLEAR     28  24  85 SE9       30.04R WCI  19
MITCHELL       CLEAR     28  24  85 SE9       30.04S WCI  19
YANKTON        CLOUDY    30  23  74 SE9       30.07R WCI  22
$$

ABBREVIATIONS USED IN REMARKS
   TC - TEMPERATURE IN CELSIUS
  WCI - WIND CHILL INDEX
   HX - HEAT INDEX
  VSB - VISIBILITY



USA.gov is the U.S. government's official web portal to all federal, state and local government web resources and services.